Regional Weather Roundup
Issued by NWS Albany, NY

Home | Current Version | Previous Version | Text Only | Print | Product List | Glossary On
Versions: 1 2 3 4 5 6 7 8 9 10 11 12 13 14 15 16 17 18 19 20 21 22 23 24 25 26 27 28 29 30 31 32 33 34 35 36 37 38 39 40 41 42 43 44 45 46 47 48 49 50
000
ASUS41 KALY 282110
RWRALY

NEW YORK STATE HOURLY WEATHER ROUNDUP
NATIONAL WEATHER SERVICE ALBANY NY
500 PM EDT THU AUG 28 2014

NOTE: "FAIR" INDICATES FEW OR NO CLOUDS BELOW 12,000 FEET WITH NO
SIGNIFICANT WEATHER AND/OR NO OBSTRUCTIONS TO VISIBILITY.

NYZ032-033-038>043-046>054-057>066-NYZ062>081-282200-
EAST


CITY           SKY/WX    TMP DP  RH WIND       PRES   REMARKS
ALBANY         PTSUNNY   72  53  51 NW16G24   29.92R
GLENS FALLS    MOSUNNY   72  50  45 NW8       29.92R
POUGHKEEPSIE   PTSUNNY   77  49  37 NW13      29.90R
NEWBURGH       PTSUNNY   75  52  43 N12       29.93R
MONTGOMERY     SUNNY     76  49  38 NW16G24   29.93R
WHITE PLAINS   MOSUNNY   78  49  35 NW13      29.90R
ISLIP          MOSUNNY   79  53  40 N14       29.87R
NEW YORK CITY  PTSUNNY   80  52  37 NW14G22   29.89R
CENTRAL PARK   MOSUNNY   79  48  33 NE9G17    29.93R
$$

NYZ005>009-017-018-044>046-055-056-282200-
CENTRAL


CITY           SKY/WX    TMP DP  RH WIND       PRES   REMARKS
FULTON         MOSUNNY   69  51  52 NW12      30.04R
SYRACUSE       PTSUNNY   68  51  54 NW14G20   30.03R
ROME           CLOUDY    66  53  63 NW17      30.02R
ELMIRA         MOSUNNY   70  48  45 N12       30.05R
BINGHAMTON     PTSUNNY   63  47  55 N15G22    30.04R
MONTICELLO     MOSUNNY   68  48  49 NW14G22   30.00R
$$

NYZ026>034-041>043-282200-
NORTH


CITY           SKY/WX    TMP DP  RH WIND       PRES   REMARKS
WATERTOWN      CLOUDY    71  47  42 NW12      30.01R
FORT DRUM      NOT AVBL
MASSENA        CLOUDY    66  51  58 NW12      29.99R
SARANAC LAKE   CLOUDY    63  46  54 VRB7      29.98R
PLATTSBURGH    CLOUDY    68  50  52 NW14G20   29.95R
$$

NYZ001>004-010>016-019>021-282200-
WEST


CITY           SKY/WX    TMP DP  RH WIND       PRES   REMARKS
NIAGARA FALLS  MOSUNNY   71  46  40 NW15G23   30.08S
BUFFALO        MOSUNNY   71  44  37 NW13      30.09R
DUNKIRK        SUNNY     68  48  48 MISG      30.11S
JAMESTOWN      SUNNY     63  48  59 NW8       30.13S
WELLSVILLE     MOSUNNY   66  45  46 NW10      30.11R
ROCHESTER      PTSUNNY   70  49  47 NW9G21    30.07S
PENN YAN       PTSUNNY   66  48  52 NW13      30.08R
$$

             KEY
       WCI = WIND CHILL INDEX
       VSB = VISIBILITY
       HX  = HEAT INDEX
$$


USA.gov is the U.S. government's official web portal to all federal, state and local government web resources and services.